Martinsburg, PA

5:54 AM EST on February 25, 2017 (GMT -0500)
Altoona-Blair County

Weather History for KAOO - December, 2014

Change the Weather History Date:

Sunday, December 14, 2014

  Actual Average Record
Temperature  
Mean Temperature 41 °F 31 °F  
Max Temperature 44 °F 38 °F 64 °F (2015)
Min Temperature 38 °F 24 °F -3 °F (2005)
Degree Days  
Heating Degree Days 24 34  
Month to date heating degree days 432 448  
Since 1 July heating degree days 1734 1758  
Cooling Degree Days 0 0  
Month to date cooling degree days 0 0  
Year to date cooling degree days 521 522  
Moisture  
Dew Point 37 °F    
Average Humidity 82    
Maximum Humidity 85    
Minimum Humidity 79    
Precipitation  
Precipitation 0.00 in 0.07 in 1.16 in (1956)
Month to date precipitation 1.17 1.24  
Year to date precipitation 35.16 31.45  
Sea Level Pressure  
Sea Level Pressure 30.01 in    
Wind  
Wind Speed 12 mph (WNW)    
Max Wind Speed 23 mph    
Max Gust Speed 29 mph    
Visibility 10 miles    
Events      
T = Trace of Precipitation, MM = Missing Value Source: NWS Daily Summary

Daily Weather History Graph

Daily Weather History Graph

Search for Another Location

Airport or City:

Trip Planner

Search our weather history database for the weather conditions in past years. The results will help you decide how hot, cold, wet, or windy it might be!

Date:

Astronomy

Dec. 14, 2014 Rise Set
Actual Time 7:28 AM EST 4:47 PM EST
Civil Twilight 6:57 AM EST 5:18 PM EST
Nautical Twilight 6:23 AM EST 5:52 PM EST
Astronomical Twilight 5:50 AM EST 6:25 PM EST
Moon No Moon Rise 12:18 PM EST (12/14)
Length of Visible Light 10h 20m
Length of Day
9h 19m
Waning Gibbous, 48% of the Moon is Illuminated
Dec 14
Waning Gibbous
Dec 21
New
Dec 28
First Quarter
Jan 4
Full
Jan 13
Last Quarter

Hourly Weather History & Observations

Time (EST) Temp. Windchill Dew Point Humidity Pressure Visibility Wind Dir Wind Speed Gust Speed Precip Events Conditions
12:53 AM 39.0 °F 32.8 °F 35.1 °F 86% 30.00 in 10.0 mi WNW 9.2 mph - N/A   Overcast
1:53 AM 39.0 °F 32.8 °F 35.1 °F 86% 30.01 in 10.0 mi West 9.2 mph 18.4 mph N/A   Overcast
2:38 AM 39.9 °F 32.5 °F 35.1 °F 83% 29.96 in 10.0 mi West 12.7 mph 24.2 mph N/A   Overcast
2:53 AM 39.9 °F 35.1 °F 35.1 °F 83% 30.00 in 10.0 mi WSW 6.9 mph - N/A   Overcast
3:53 AM 39.9 °F 33.4 °F 35.1 °F 83% 29.99 in 10.0 mi West 10.4 mph 16.1 mph N/A   Overcast
4:53 AM 39.9 °F 32.1 °F 35.1 °F 83% 30.00 in 10.0 mi WNW 13.8 mph 20.7 mph N/A   Overcast
5:53 AM 39.9 °F 33.4 °F 35.1 °F 83% 30.00 in 10.0 mi West 10.4 mph - N/A   Overcast
6:53 AM 39.9 °F 31.8 °F 35.1 °F 83% 30.01 in 10.0 mi West 15.0 mph - N/A   Overcast
7:53 AM 39.9 °F 32.1 °F 36.0 °F 86% 30.01 in 10.0 mi WNW 13.8 mph 20.7 mph N/A   Overcast
8:53 AM 41.0 °F 33.5 °F 36.0 °F 82% 30.02 in 10.0 mi WNW 13.8 mph 24.2 mph N/A   Overcast
9:24 AM 41.0 °F 33.1 °F 37.0 °F 86% 29.98 in 10.0 mi WNW 15.0 mph 25.3 mph N/A   Overcast
9:53 AM 42.1 °F 33.3 °F 37.0 °F 82% 30.02 in 10.0 mi WNW 19.6 mph - N/A   Overcast
10:53 AM 42.1 °F 34.2 °F 37.0 °F 82% 30.03 in 10.0 mi WNW 16.1 mph 21.9 mph N/A   Overcast
11:12 AM 42.1 °F 35.7 °F 37.0 °F 82% 29.99 in 10.0 mi WNW 11.5 mph 21.9 mph N/A   Overcast
11:53 AM 42.1 °F 34.5 °F 37.9 °F 85% 30.01 in 10.0 mi NW 15.0 mph 23.0 mph N/A   Overcast
12:30 PM 43.0 °F 36.8 °F 37.9 °F 82% 29.97 in 10.0 mi WNW 11.5 mph 20.7 mph N/A   Overcast
12:53 PM 43.0 °F 37.2 °F 37.9 °F 82% 29.99 in 10.0 mi NW 10.4 mph 21.9 mph N/A   Overcast
1:03 PM 43.0 °F 36.8 °F 37.9 °F 82% 29.97 in 10.0 mi NW 11.5 mph 19.6 mph N/A   Overcast
1:53 PM 43.0 °F 35.7 °F 37.9 °F 82% 29.99 in 10.0 mi WNW 15.0 mph 23.0 mph N/A   Overcast
2:03 PM 43.0 °F 36.0 °F 37.9 °F 82% 29.96 in 10.0 mi WNW 13.8 mph - N/A   Overcast
2:53 PM 43.0 °F 36.4 °F 37.9 °F 82% 29.99 in 10.0 mi WNW 12.7 mph - N/A   Overcast
3:12 PM 43.0 °F 36.0 °F 37.9 °F 82% 29.96 in 10.0 mi WNW 13.8 mph - N/A   Overcast
3:53 PM 43.0 °F 36.4 °F 37.9 °F 82% 30.01 in 10.0 mi WNW 12.7 mph - N/A   Overcast
4:53 PM 42.1 °F 35.2 °F 37.9 °F 85% 30.02 in 10.0 mi WNW 12.7 mph - N/A   Overcast
5:53 PM 42.1 °F 34.9 °F 37.0 °F 82% 30.03 in 10.0 mi NW 13.8 mph 21.9 mph N/A   Overcast
6:18 PM 42.1 °F 35.7 °F 37.9 °F 85% 30.01 in 10.0 mi NW 11.5 mph - N/A   Overcast
6:35 PM 42.1 °F 36.1 °F 37.9 °F 85% 30.01 in 10.0 mi NW 10.4 mph 21.9 mph N/A   Overcast
6:53 PM 42.1 °F 34.5 °F 37.9 °F 85% 30.05 in 10.0 mi NW 15.0 mph 23.0 mph N/A   Overcast
7:53 PM 42.1 °F 35.7 °F 37.0 °F 82% 30.06 in 10.0 mi NW 11.5 mph - N/A   Overcast
8:53 PM 42.1 °F 36.1 °F 37.0 °F 82% 30.06 in 10.0 mi NNW 10.4 mph 20.7 mph N/A   Overcast
9:53 PM 43.0 °F 39.5 °F 37.9 °F 82% 30.06 in 10.0 mi Variable 5.8 mph - N/A   Overcast
10:53 PM 43.0 °F 40.3 °F 37.9 °F 82% 30.06 in 10.0 mi NW 4.6 mph - N/A   Overcast
11:53 PM 43.0 °F 37.2 °F 39.0 °F 86% 30.05 in 10.0 mi NW 10.4 mph - N/A   Overcast